User: anonymous   Login
Location: ??????
(42.0089°N, 44.3281°E)
Time: 22:43:21
(UTC+00:00)
Language:

SKYMED 3 - Orbit

View from above orbital plane
View from above orbital plane
View from above satellite
View from above satellite

Ground track
Ground track

The orbit data is extracted from the following two-line orbital elements,

1 33412U 08054A   22017.46517647  .00000196  00000-0  31148-4 0  9999
2 33412  97.8809 203.3128 0001515  87.8119 272.3308 14.82155232715800
Epoch (UTC): 17 January 2022 11:09:51
Eccentricity: 0.0001515
inclination: 97.8809°
perigee height: 621 km
apogee height: 623 km
right ascension of ascending node: 203.3128°
argument of perigee: 87.8119°
revolutions per day: 14.82155232
mean anomaly at epoch: 272.3308°
orbit number at epoch: 71580

The dashed part of the orbit path shows where the satellite is in the earth's shadow,  

DLR